| time (UTC) | temp F | wind direction | speed knots | gust knots | rain 1hr in | rain 24hr in | rain mn in | humidity % | barometer mb |
| 20260506070505 | 67 | 184 | 0.9 | 8.7 | 0.00 | 0.00 | 0.00 | 55 | 1006.4 |
| 20260506062506 | 68 | 204 | 1.7 | 7.8 | 0.00 | 0.00 | 0.00 | 51 | 1006.8 |
| 20260506062005 | 68 | 188 | 0.9 | 5.2 | 0.00 | 0.00 | 0.00 | 51 | 1006.9 |
| 20260506061505 | 68 | 208 | 0.0 | 5.2 | 0.00 | 0.00 | 0.00 | 51 | 1007.0 |
| 20260506061005 | 68 | 181 | 0.0 | 2.6 | 0.00 | 0.00 | 0.00 | 50 | 1007.1 |
| 20260506060505 | 68 | 169 | 0.9 | 7.8 | 0.00 | 0.00 | 0.00 | 50 | 1007.1 |
| 20260506051005 | 68 | 209 | 0.9 | 7.8 | 0.00 | 0.00 | 0.00 | 47 | 1007.7 |
| 20260506050504 | 68 | 211 | 0.0 | 4.3 | 0.00 | 0.00 | 0.00 | 47 | 1007.8 |
| 20260506045005 | 68 | 185 | 0.0 | 7.0 | 0.00 | 0.00 | 0.00 | 47 | 1007.8 |
| 20260506044505 | 68 | 191 | 0.0 | 4.3 | 0.00 | 0.00 | 0.00 | 47 | 1007.8 |
| 20260506043505 | 68 | 189 | 0.9 | 4.3 | 0.00 | 0.00 | 0.00 | 46 | 1007.8 |
| 20260506043004 | 68 | 196 | 0.0 | 0.9 | 0.00 | 0.00 | 0.00 | 46 | 1007.8 |
| 20260506042504 | 68 | 208 | 0.9 | 2.6 | 0.00 | 0.00 | 0.00 | 45 | 1007.8 |
| 20260506042005 | 68 | 212 | 0.0 | 0.0 | 0.00 | 0.00 | 0.00 | 45 | 1007.7 |
| 20260506041505 | 68 | 185 | 0.0 | 4.3 | 0.00 | 0.00 | 0.00 | 45 | 1007.8 |
| 20260506041005 | 69 | 194 | 0.0 | 0.0 | 0.00 | 0.00 | 0.00 | 45 | 1007.7 |
| 20260506040505 | 69 | 194 | 0.0 | 0.0 | 0.00 | 0.00 | 0.00 | 45 | 1007.7 |
| 20260506040004 | 69 | 196 | 0.0 | 0.9 | 0.00 | 0.00 | 0.00 | 44 | 1007.7 |
| 20260506035005 | 68 | 188 | 0.0 | 1.7 | 0.00 | 0.00 | 0.00 | 44 | 1007.7 |
| 20260506034505 | 68 | 194 | 0.0 | 2.6 | 0.00 | 0.00 | 0.00 | 44 | 1007.7 |
| 20260506034005 | 68 | 175 | 0.0 | 2.6 | 0.00 | 0.00 | 0.00 | 44 | 1007.7 |
| 20260506033504 | 68 | 202 | 0.0 | 2.6 | 0.00 | 0.00 | 0.00 | 44 | 1007.6 |
| 20260506032004 | 68 | 190 | 0.0 | 2.6 | 0.00 | 0.00 | 0.00 | 43 | 1007.6 |
| 20260506031004 | 69 | 197 | 0.0 | 0.0 | 0.00 | 0.00 | 0.00 | 42 | 1007.5 |
| 20260506030505 | 69 | 197 | 0.0 | 1.7 | 0.00 | 0.00 | 0.00 | 41 | 1007.5 |
| 20260506030004 | 69 | 192 | 0.0 | 0.0 | 0.00 | 0.00 | 0.00 | 41 | 1007.6 |
| 20260506024505 | 70 | 182 | 0.0 | 0.0 | 0.00 | 0.00 | 0.00 | 40 | 1007.7 |
| 20260506024005 | 70 | 189 | 0.0 | 1.7 | 0.00 | 0.00 | 0.00 | 39 | 1007.6 |
| 20260506023005 | 70 | 185 | 0.0 | 0.0 | 0.00 | 0.00 | 0.00 | 39 | 1007.6 |
| 20260506022504 | 71 | 185 | 0.0 | 0.0 | 0.00 | 0.00 | 0.00 | 38 | 1007.6 |
| 20260506022004 | 71 | 207 | 0.0 | 0.9 | 0.00 | 0.00 | 0.00 | 38 | 1007.6 |
| 20260506021504 | 71 | 184 | 0.0 | 2.6 | 0.00 | 0.00 | 0.00 | 38 | 1007.6 |
| 20260506021004 | 71 | 231 | 0.0 | 4.3 | 0.00 | 0.00 | 0.00 | 37 | 1007.7 |
| 20260506020006 | 71 | 225 | 0.0 | 0.0 | 0.00 | 0.00 | 0.00 | 37 | 1007.6 |
| 20260506015505 | 71 | 224 | 0.0 | 0.0 | 0.00 | 0.00 | 0.00 | 37 | 1007.7 |
| 20260506015004 | 71 | 242 | 0.0 | 0.0 | 0.00 | 0.00 | 0.00 | 37 | 1007.7 |
| 20260506014504 | 71 | 244 | 0.0 | 0.0 | 0.00 | 0.00 | 0.00 | 37 | 1007.6 |
| 20260506014004 | 71 | 236 | 0.0 | 0.0 | 0.00 | 0.00 | 0.00 | 37 | 1007.5 |
| 20260506013504 | 71 | 190 | 0.0 | 0.0 | 0.00 | 0.00 | 0.00 | 37 | 1007.5 |
| 20260506012504 | 71 | 190 | 0.0 | 0.0 | 0.00 | 0.00 | 0.00 | 37 | 1007.4 |
| 20260506011504 | 71 | 195 | 0.0 | 0.0 | 0.00 | 0.00 | 0.00 | 37 | 1007.3 |
| 20260506011005 | 71 | 205 | 0.0 | 0.0 | 0.00 | 0.00 | 0.00 | 36 | 1007.2 |
| 20260506010504 | 72 | 176 | 0.0 | 0.0 | 0.00 | 0.00 | 0.00 | 36 | 1007.2 |
| 20260506010004 | 72 | 205 | 0.0 | 0.0 | 0.00 | 0.00 | 0.00 | 37 | 1007.1 |
| 20260506005004 | 72 | 205 | 0.0 | 0.0 | 0.00 | 0.00 | 0.00 | 37 | 1007.0 |
| 20260506004504 | 72 | 194 | 0.0 | 0.9 | 0.00 | 0.00 | 0.00 | 37 | 1007.0 |
| 20260506004004 | 72 | 196 | 0.0 | 0.9 | 0.00 | 0.00 | 0.00 | 38 | 1006.9 |
| 20260506003505 | 73 | 198 | 0.0 | 0.0 | 0.00 | 0.00 | 0.00 | 37 | 1006.8 |
| 20260506003004 | 73 | 221 | 0.0 | 0.0 | 0.00 | 0.00 | 0.00 | 38 | 1006.7 |
| 20260506002503 | 73 | 195 | 0.0 | 0.9 | 0.00 | 0.00 | 0.00 | 38 | 1006.6 |
| 20260506002004 | 73 | 193 | 0.0 | 0.0 | 0.00 | 0.00 | 0.00 | 37 | 1006.6 |
| 20260506001504 | 74 | 193 | 0.0 | 0.0 | 0.00 | 0.00 | 0.00 | 37 | 1006.5 |
| 20260506001005 | 74 | 201 | 0.0 | 4.3 | 0.00 | 0.00 | 0.00 | 37 | 1006.5 |
| 20260506000505 | 74 | 185 | 0.0 | 0.0 | 0.00 | 0.00 | 0.00 | 37 | 1006.5 |
| 20260505235504 | 74 | 186 | 0.0 | 2.6 | 0.00 | 0.00 | 0.00 | 37 | 1006.4 |
| 20260505234504 | 75 | 189 | 0.9 | 5.2 | 0.00 | 0.00 | 0.00 | 36 | 1006.3 |
| 20260505234009 | 75 | 201 | 0.0 | 2.6 | 0.00 | 0.00 | 0.00 | 36 | 1006.3 |
| 20260505233509 | 76 | 180 | 0.9 | 5.2 | 0.00 | 0.00 | 0.00 | 36 | 1006.3 |
| 20260505233008 | 76 | 219 | 0.9 | 4.3 | 0.00 | 0.00 | 0.00 | 36 | 1006.4 |
| 20260505232508 | 76 | 191 | 1.7 | 15.6 | 0.00 | 0.00 | 0.00 | 36 | 1006.4 |
| 20260505232008 | 76 | 189 | 0.0 | 4.3 | 0.00 | 0.00 | 0.00 | 36 | 1006.3 |
| 20260505231509 | 76 | 190 | 2.6 | 7.8 | 0.00 | 0.00 | 0.00 | 36 | 1006.2 |
| 20260505231008 | 76 | 226 | 1.7 | 7.0 | 0.00 | 0.00 | 0.00 | 36 | 1006.3 |
| 20260505230509 | 76 | 200 | 0.9 | 5.2 | 0.00 | 0.00 | 0.00 | 36 | 1006.2 |
| 20260505230009 | 77 | 197 | 0.9 | 7.0 | 0.00 | 0.00 | 0.00 | 36 | 1006.2 |
| 20260505225008 | 77 | 191 | 0.9 | 7.8 | 0.00 | 0.00 | 0.00 | 36 | 1006.2 |
| 20260505224508 | 77 | 248 | 0.9 | 7.8 | 0.00 | 0.00 | 0.00 | 36 | 1006.2 |
| 20260505223509 | 77 | 204 | 0.0 | 5.2 | 0.00 | 0.00 | 0.00 | 37 | 1006.1 |
| 20260505223009 | 77 | 202 | 0.9 | 7.0 | 0.00 | 0.00 | 0.00 | 36 | 1006.2 |
| 20260505222509 | 78 | 207 | 0.9 | 8.7 | 0.00 | 0.00 | 0.00 | 35 | 1006.2 |
| 20260505222008 | 78 | 193 | 0.9 | 8.7 | 0.00 | 0.00 | 0.00 | 35 | 1006.2 |
| 20260505221508 | 78 | 199 | 1.7 | 8.7 | 0.00 | 0.00 | 0.00 | 34 | 1006.2 |
| 20260505221008 | 78 | 194 | 1.7 | 11.3 | 0.00 | 0.00 | 0.00 | 34 | 1006.2 |
| 20260505220508 | 78 | 228 | 1.7 | 12.2 | 0.00 | 0.00 | 0.00 | 34 | 1006.3 |
| 20260505215508 | 79 | 215 | 2.6 | 10.4 | 0.00 | 0.00 | 0.00 | 34 | 1006.3 |
| 20260505215009 | 79 | 228 | 0.9 | 11.3 | 0.00 | 0.00 | 0.00 | 35 | 1006.3 |
| 20260505214508 | 80 | 218 | 2.6 | 13.0 | 0.00 | 0.00 | 0.00 | 33 | 1006.2 |
| 20260505214009 | 80 | 212 | 1.7 | 13.9 | 0.00 | 0.00 | 0.00 | 29 | 1006.2 |
| 20260505213508 | 81 | 197 | 2.6 | 12.2 | 0.00 | 0.00 | 0.00 | 28 | 1006.2 |
| 20260505212508 | 82 | 216 | 1.7 | 12.2 | 0.00 | 0.00 | 0.00 | 31 | 1006.1 |
| 20260505212008 | 82 | 188 | 0.9 | 7.8 | 0.00 | 0.00 | 0.00 | 32 | 1006.0 |
| 20260505211508 | 82 | 216 | 4.3 | 12.2 | 0.00 | 0.00 | 0.00 | 30 | 1006.0 |
| 20260505211009 | 81 | 203 | 2.6 | 10.4 | 0.00 | 0.00 | 0.00 | 29 | 1006.0 |
| 20260505210509 | 81 | 224 | 1.7 | 8.7 | 0.00 | 0.00 | 0.00 | 31 | 1006.0 |
| 20260505210008 | 81 | 188 | 0.9 | 11.3 | 0.00 | 0.00 | 0.00 | 31 | 1006.0 |
| 20260505205509 | 81 | 205 | 2.6 | 7.8 | 0.00 | 0.00 | 0.00 | 30 | 1006.0 |
| 20260505205008 | 81 | 219 | 3.5 | 10.4 | 0.00 | 0.00 | 0.00 | 30 | 1006.1 |
| 20260505203509 | 82 | 189 | 2.6 | 17.4 | 0.00 | 0.00 | 0.00 | 30 | 1006.0 |
| 20260505203009 | 82 | 234 | 2.6 | 11.3 | 0.00 | 0.00 | 0.00 | 30 | 1006.1 |
| 20260505202508 | 82 | 119 | 0.0 | 4.3 | 0.00 | 0.00 | 0.00 | 31 | 1006.1 |
| 20260505202008 | 82 | 218 | 1.7 | 10.4 | 0.00 | 0.00 | 0.00 | 30 | 1006.1 |
| 20260505201508 | 82 | 239 | 4.3 | 13.0 | 0.00 | 0.00 | 0.00 | 30 | 1006.2 |
| 20260505200508 | 82 | 237 | 0.9 | 6.1 | 0.00 | 0.00 | 0.00 | 33 | 1006.2 |
| 20260505200008 | 82 | 243 | 1.7 | 10.4 | 0.00 | 0.00 | 0.00 | 35 | 1006.3 |
| 20260505195008 | 82 | 180 | 2.6 | 13.0 | 0.00 | 0.00 | 0.00 | 34 | 1006.4 |
| 20260505194508 | 82 | 191 | 1.7 | 10.4 | 0.00 | 0.00 | 0.00 | 36 | 1006.4 |
| 20260505194008 | 82 | 231 | 3.5 | 10.4 | 0.00 | 0.00 | 0.00 | 36 | 1006.4 |
| 20260505192508 | 81 | 219 | 3.5 | 12.2 | 0.00 | 0.00 | 0.00 | 33 | 1006.7 |
| 20260505192008 | 81 | 200 | 4.3 | 13.0 | 0.00 | 0.00 | 0.00 | 33 | 1006.8 |
| 20260505191508 | 81 | 201 | 1.7 | 10.4 | 0.00 | 0.00 | 0.00 | 35 | 1006.9 |
| 20260505191009 | 81 | 208 | 1.7 | 11.3 | 0.00 | 0.00 | 0.00 | 34 | 1006.9 |
| 20260505190008 | 81 | 239 | 1.7 | 10.4 | 0.00 | 0.00 | 0.00 | 36 | 1007.0 |
| 20260505185508 | 81 | 239 | 3.5 | 11.3 | 0.00 | 0.00 | 0.00 | 35 | 1007.1 |
| 20260505185008 | 81 | 204 | 4.3 | 13.9 | 0.00 | 0.00 | 0.00 | 36 | 1007.2 |
| 20260505184508 | 80 | 223 | 5.2 | 14.8 | 0.00 | 0.00 | 0.00 | 36 | 1007.2 |
| 20260505183508 | 82 | 178 | 2.6 | 11.3 | 0.00 | 0.00 | 0.00 | 34 | 1007.2 |
| 20260505183008 | 82 | 188 | 0.9 | 10.4 | 0.00 | 0.00 | 0.00 | 37 | 1007.4 |
| 20260505182508 | 82 | 228 | 3.5 | 10.4 | 0.00 | 0.00 | 0.00 | 35 | 1007.4 |
| 20260505182008 | 82 | 179 | 0.9 | 7.0 | 0.00 | 0.00 | 0.00 | 37 | 1007.4 |
| 20260505181507 | 81 | 209 | 1.7 | 10.4 | 0.00 | 0.00 | 0.00 | 36 | 1007.5 |
| 20260505180509 | 81 | 210 | 1.7 | 10.4 | 0.00 | 0.00 | 0.00 | 36 | 1007.5 |
| 20260505180008 | 81 | 225 | 4.3 | 12.2 | 0.00 | 0.00 | 0.00 | 35 | 1007.7 |
| 20260505175508 | 81 | 199 | 2.6 | 10.4 | 0.00 | 0.00 | 0.00 | 37 | 1007.7 |
| 20260505175008 | 81 | 226 | 4.3 | 15.6 | 0.00 | 0.00 | 0.00 | 36 | 1007.7 |
| 20260505174507 | 81 | 207 | 0.0 | 8.7 | 0.00 | 0.00 | 0.00 | 37 | 1007.7 |
| 20260505174007 | 81 | 211 | 3.5 | 10.4 | 0.00 | 0.00 | 0.00 | 37 | 1007.8 |
| 20260505173508 | 80 | 213 | 2.6 | 11.3 | 0.00 | 0.00 | 0.00 | 38 | 1007.8 |
| 20260505173008 | 80 | 245 | 2.6 | 14.8 | 0.00 | 0.00 | 0.00 | 37 | 1007.7 |
| 20260505172508 | 80 | 223 | 1.7 | 8.7 | 0.00 | 0.00 | 0.00 | 39 | 1007.7 |
| 20260505172008 | 80 | 187 | 2.6 | 13.0 | 0.00 | 0.00 | 0.00 | 37 | 1007.8 |
| 20260505171508 | 80 | 213 | 2.6 | 13.0 | 0.00 | 0.00 | 0.00 | 39 | 1007.9 |
| 20260505171008 | 80 | 216 | 2.6 | 14.8 | 0.00 | 0.00 | 0.00 | 40 | 1008.1 |
| 20260505170507 | 80 | 213 | 0.9 | 11.3 | 0.00 | 0.00 | 0.00 | 38 | 1008.1 |
| 20260505170007 | 80 | 239 | 2.6 | 11.3 | 0.00 | 0.00 | 0.00 | 39 | 1008.2 |
| 20260505165007 | 80 | 243 | 0.9 | 8.7 | 0.00 | 0.00 | 0.00 | 39 | 1008.3 |
| 20260505164008 | 80 | 239 | 0.9 | 5.2 | 0.00 | 0.00 | 0.00 | 39 | 1008.5 |
| 20260505163009 | 80 | 203 | 1.7 | 11.3 | 0.00 | 0.00 | 0.00 | 40 | 1008.6 |
| 20260505162507 | 79 | 211 | 0.9 | 10.4 | 0.00 | 0.00 | 0.00 | 40 | 1008.7 |
| 20260505162007 | 78 | 243 | 0.0 | 7.0 | 0.00 | 0.00 | 0.00 | 42 | 1008.8 |
| 20260505161507 | 78 | 241 | 4.3 | 13.0 | 0.00 | 0.00 | 0.00 | 40 | 1009.0 |
| 20260505160507 | 78 | 238 | 2.6 | 10.4 | 0.00 | 0.00 | 0.00 | 40 | 1009.1 |
| 20260505152507 | 76 | 238 | 0.9 | 12.2 | 0.00 | 0.00 | 0.00 | 44 | 1009.2 |
| 20260505152007 | 76 | 213 | 0.9 | 13.0 | 0.00 | 0.00 | 0.00 | 44 | 1009.2 |
| 20260505151507 | 76 | 237 | 5.2 | 13.0 | 0.00 | 0.00 | 0.00 | 42 | 1009.3 |
| 20260505150508 | 76 | 239 | 1.7 | 11.3 | 0.00 | 0.00 | 0.00 | 45 | 1009.3 |
| 20260505140507 | 73 | 241 | 1.7 | 7.0 | 0.00 | 0.00 | 0.00 | 49 | 1009.4 |
| 20260505124506 | 67 | 239 | 0.9 | 7.8 | 0.00 | 0.00 | 0.00 | 56 | 1010.2 |
| 20260505124006 | 66 | 233 | 0.9 | 6.1 | 0.00 | 0.00 | 0.00 | 57 | 1010.2 |
| 20260505123507 | 66 | 239 | 0.9 | 7.0 | 0.00 | 0.00 | 0.00 | 56 | 1010.3 |
| 20260505123007 | 66 | 211 | 0.0 | 1.7 | 0.00 | 0.00 | 0.00 | 57 | 1010.3 |
| 20260505122507 | 66 | 237 | 0.9 | 7.8 | 0.00 | 0.00 | 0.00 | 57 | 1010.4 |
| 20260505122006 | 66 | 237 | 0.0 | 2.6 | 0.00 | 0.00 | 0.00 | 58 | 1010.5 |
| 20260505121506 | 65 | 225 | 0.0 | 10.4 | 0.00 | 0.00 | 0.00 | 59 | 1010.4 |
| 20260505120507 | 64 | 237 | 0.0 | 2.6 | 0.00 | 0.00 | 0.00 | 59 | 1010.5 |
| 20260505120006 | 64 | 239 | 0.0 | 0.9 | 0.00 | 0.00 | 0.00 | 61 | 1010.5 |
| 20260505115508 | 64 | 222 | 0.0 | 4.3 | 0.00 | 0.00 | 0.00 | 61 | 1010.4 |
| 20260505115006 | 63 | 236 | 0.0 | 0.9 | 0.00 | 0.00 | 0.00 | 63 | 1010.3 |
| 20260505114506 | 63 | 251 | 0.0 | 0.0 | 0.00 | 0.00 | 0.00 | 63 | 1010.3 |
| 20260505114006 | 62 | 296 | 0.0 | 1.7 | 0.00 | 0.00 | 0.00 | 64 | 1010.3 |
| 20260505113507 | 61 | 251 | 0.0 | 0.0 | 0.00 | 0.00 | 0.00 | 65 | 1010.2 |
| 20260505112506 | 60 | 229 | 0.0 | 0.0 | 0.00 | 0.00 | 0.00 | 67 | 1010.1 |
| 20260505112006 | 60 | 229 | 0.0 | 0.0 | 0.00 | 0.00 | 0.00 | 67 | 1010.0 |
| 20260505111507 | 60 | 229 | 0.0 | 0.9 | 0.00 | 0.00 | 0.00 | 67 | 1010.0 |
| 20260505111007 | 60 | 262 | 0.0 | 0.0 | 0.00 | 0.00 | 0.00 | 67 | 1010.0 |
| 20260505110507 | 59 | 270 | 0.0 | 0.0 | 0.00 | 0.00 | 0.00 | 67 | 1009.8 |
| 20260505101505 | 59 | 275 | 0.0 | 0.0 | 0.00 | 0.00 | 0.00 | 68 | 1009.3 |
| 20260505101006 | 59 | 275 | 0.0 | 0.0 | 0.00 | 0.00 | 0.00 | 69 | 1009.3 |
| 20260505100507 | 58 | 282 | 0.0 | 0.9 | 0.00 | 0.00 | 0.00 | 70 | 1009.3 |
| 20260505100006 | 58 | 262 | 0.0 | 0.9 | 0.00 | 0.00 | 0.00 | 71 | 1009.2 |
| 20260505095506 | 58 | 292 | 0.0 | 0.0 | 0.00 | 0.00 | 0.00 | 71 | 1009.2 |
| 20260505095006 | 57 | 292 | 0.0 | 0.0 | 0.00 | 0.00 | 0.00 | 72 | 1009.3 |
| 20260505094505 | 57 | 294 | 0.0 | 0.0 | 0.00 | 0.00 | 0.00 | 73 | 1009.2 |
| 20260505094006 | 57 | 294 | 0.0 | 0.0 | 0.00 | 0.00 | 0.00 | 74 | 1009.1 |
| 20260505093507 | 57 | 292 | 0.0 | 0.9 | 0.00 | 0.00 | 0.00 | 74 | 1009.1 |
| 20260505093007 | 57 | 291 | 0.0 | 0.0 | 0.00 | 0.00 | 0.00 | 75 | 1009.1 |
| 20260505092505 | 56 | 292 | 0.0 | 0.0 | 0.00 | 0.00 | 0.00 | 76 | 1009.1 |
| 20260505092005 | 56 | 292 | 0.0 | 0.0 | 0.00 | 0.00 | 0.00 | 77 | 1009.1 |
| 20260505091505 | 56 | 292 | 0.0 | 0.0 | 0.00 | 0.00 | 0.00 | 78 | 1009.1 |
| 20260505091005 | 55 | 291 | 0.0 | 0.0 | 0.00 | 0.00 | 0.00 | 78 | 1009.2 |
| 20260505090506 | 55 | 292 | 0.0 | 0.0 | 0.00 | 0.00 | 0.00 | 79 | 1009.1 |
| 20260505090006 | 55 | 292 | 0.0 | 0.0 | 0.00 | 0.00 | 0.00 | 80 | 1009.0 |
| 20260505085506 | 55 | 291 | 0.0 | 0.0 | 0.00 | 0.00 | 0.00 | 81 | 1009.0 |
| 20260505085006 | 55 | 291 | 0.0 | 0.0 | 0.00 | 0.00 | 0.00 | 81 | 1009.1 |
| 20260505083505 | 54 | 290 | 0.0 | 0.0 | 0.00 | 0.00 | 0.00 | 82 | 1009.0 |
| 20260505082506 | 54 | 278 | 0.0 | 0.0 | 0.00 | 0.00 | 0.00 | 82 | 1008.9 |
| 20260505082005 | 54 | 276 | 0.0 | 0.0 | 0.00 | 0.00 | 0.00 | 83 | 1008.9 |
| 20260505081505 | 54 | 276 | 0.0 | 0.0 | 0.00 | 0.00 | 0.00 | 83 | 1008.9 |
| 20260505081006 | 54 | 276 | 0.0 | 0.0 | 0.00 | 0.00 | 0.00 | 82 | 1008.9 |
| 20260505080506 | 54 | 275 | 0.0 | 0.0 | 0.00 | 0.00 | 0.00 | 81 | 1008.9 |
| 20260505080005 | 54 | 275 | 0.0 | 0.0 | 0.00 | 0.00 | 0.00 | 81 | 1008.9 |
| 20260505075006 | 54 | 275 | 0.0 | 0.0 | 0.00 | 0.00 | 0.00 | 81 | 1008.9 |
| 20260505074506 | 55 | 275 | 0.0 | 0.0 | 0.00 | 0.00 | 0.00 | 80 | 1008.8 |
| 20260505074006 | 55 | 275 | 0.0 | 0.0 | 0.00 | 0.00 | 0.00 | 80 | 1008.8 |
| 20260505073505 | 55 | 275 | 0.0 | 0.0 | 0.00 | 0.00 | 0.00 | 79 | 1008.7 |
| 20260505073006 | 55 | 275 | 0.0 | 0.0 | 0.00 | 0.00 | 0.00 | 79 | 1008.7 |
| 20260505072506 | 55 | 275 | 0.0 | 0.0 | 0.00 | 0.00 | 0.00 | 79 | 1008.6 |
| 20260505072005 | 56 | 275 | 0.0 | 0.0 | 0.00 | 0.00 | 0.00 | 79 | 1008.7 |
| 20260505071505 | 56 | 275 | 0.0 | 0.0 | 0.00 | 0.00 | 0.00 | 78 | 1008.7 |
| 20260505071005 | 56 | 274 | 0.0 | 0.0 | 0.00 | 0.00 | 0.00 | 78 | 1008.6 |